Regional Weather Roundup
Issued by NWS Sterling, VA

Home | Current Version | Previous Version | Graphics & Text | Print | Product List | Glossary On
Versions: 1 2 3 4 5 6 7 8 9 10 11 12 13 14 15 16 17 18 19 20 21 22 23 24 25 26 27
000
ASUS41 KLWX 301410
RWRLWX

REGIONAL WEATHER ROUNDUP
NATIONAL WEATHER SERVICE BALTIMORE MD/WASHINGTON DC
1000 AM EDT MON MAY 30 2016

Note: "FAIR" indicates few or no clouds below 12,000 feet
with no significant weather and/or obstructions to visibility.
 TC=TEMPERATURE CELSIUS

 * =Non NWS site. Station does not report precipitation (e.g. rain,
    snow, etc.), thunder, or fog.

DCZ001-MDZ009-015-VAZ040>042-051-053>054-301500-
WASHINGTON METRO

CITY           SKY/WX    TMP DP  RH WIND       PRES   REMARKS
WASHINGTON NAT PTSUNNY   74  66  76 N5        30.03F
DULLES         PTSUNNY   74  64  71 CALM      30.03F
ANDREWS AFB    CLOUDY    72  64  76 N7        30.03S
FT BELVOIR     FAIR      73  67  80 VRB1      30.03S
QUANTICO       CLOUDY    73  66  78 VRB6      30.04S
COLLEGE PARK*  CLOUDY    72  64  78 CALM      30.03S
LEESBURG*      CLOUDY    73  68  83 CALM      30.04F
MANASSAS*      CLOUDY    73  66  78 N7        30.04S

$$

MDZ006>007-011-014-301500-
BALTIMORE METRO

CITY           SKY/WX    TMP DP  RH WIND       PRES   REMARKS
BWI AIRPORT    CLOUDY    72  64  76 CALM      30.02F
MD SCIENCE CTR   N/A     74  62  66 MISG      30.04S
MARTIN STATE   PTSUNNY   73  70  88 CALM      30.04
ANNAPOLIS      CLOUDY    73  66  78 CALM      30.03S
FORT MEADE*    CLOUDY    70  66  88 CALM      30.05F

$$

MDZ012-015-019>023-301500-
MARYLAND EASTERN SHORE

CITY           SKY/WX    TMP DP  RH WIND       PRES   REMARKS
OCEAN CITY     CLOUDY    72  71  97 SW8       30.03S
SALISBURY      LGT RAIN  73  72  96 SE3       30.03S
BAY BRIDGE AP* LGT RAIN  70  66  88 N6        30.03S
CAMBRIDGE*     CLOUDY    72  70  94 N5        30.02S
EASTON*        CLOUDY    73  73 100 CALM      30.06S

$$

MDZ017>025-301500-
SOUTHERN MARYLAND

CITY           SKY/WX    TMP DP  RH WIND       PRES   REMARKS
PATUXENT RIVER CLOUDY    71  69  93 NE3       30.03R FOG
ST INIGOES     LGT RAIN  74  72  93 CALM      30.02R FOG
LEONARDTOWN*   CLOUDY    72  70  94 CALM      30.05R

$$

MDZ003>005-301500-
NORTH CENTRAL MARYLAND

CITY           SKY/WX    TMP DP  RH WIND       PRES   REMARKS
FREDERICK*     PTSUNNY   72  66  83 SW3       30.06F
HAGERSTOWN APT MOSUNNY   70  64  81 SW3       30.04F
WESTMINSTER*   PTSUNNY   72  68  88 CALM      30.04F

$$

MDZ501>502-301500-
WESTERN MARYLAND

CITY           SKY/WX    TMP DP  RH WIND       PRES   REMARKS
OAKLAND*       CLOUDY    66  61  82 W5        30.11S
CUMBERLAND*    CLOUDY    70  63  78 CALM      30.08F

$$

VAZ025>031-301500-
SHENANDOAH VALLEY

CITY           SKY/WX    TMP DP  RH WIND       PRES   REMARKS
WINCHESTER*    FAIR      72  63  73 SW6       30.04F
FRONT ROYAL*   CLOUDY    70  63  78 SW6       30.04F
LURAY*         PTSUNNY   70  64  83 SW5       30.05F
NEW MARKET*    FAIR      68  63  83 W3        30.04F
STAUNTON*      FAIR      66  62  85 CALM      30.08F
WAYNESBORO*    CLOUDY    66  61  84 CALM      30.07F

$$

WVZ021-048>050-054>055-301500-
EASTERN WEST VIRGINIA PANHANDLE

CITY           SKY/WX    TMP DP  RH WIND       PRES   REMARKS
MARTINSBURG    FAIR      69  63  81 S5        30.03F
PETERSBURG*    FAIR      71  62  73 CALM      30.05F

$$

VAZ036>039-050-301500-
CENTRAL FOOTHILLS

CITY           SKY/WX    TMP DP  RH WIND       PRES   REMARKS
CHARLOTTESVILL FAIR      73  62  68 CALM      30.03F
CULPEPER*      CLOUDY    71  68  89 CALM      30.04F
ORANGE*        CLOUDY    72  68  88 CALM      30.06R
GORDONSVILLE*  PTSUNNY   73  65  75 NE3       30.03S
WARRENTON*     CLOUDY    73  62  69 CALM      30.03F

$$

VAZ055>057-301500-
NORTH AND CENTRAL PIEDMONT

CITY           SKY/WX    TMP DP  RH WIND       PRES   REMARKS
FREDERICKSBRG* PTSUNNY   74  66  76 E5        30.03R
STAFFORD*      PTSUNNY   72  64  75 N3        30.08R

$$

NCZ024-NYZ072-PAZ021-071-VAZ022-071-301500-
OTHER REGIONAL OBSERVATIONS

CITY           SKY/WX    TMP DP  RH WIND       PRES   REMARKS
NEW YORK CITY  CLOUDY    69  66  90 VRB3      30.04S
PHILADELPHIA   CLOUDY    74  67  78 CALM      30.02F
PITTSBURGH     PTSUNNY   71  61  70 W7        30.03R
ROANOKE        FAIR      69  63  81 W5        30.09F
RICHMOND       CLOUDY    73  69  87 CALM      30.03R FOG
RALEIGH        CLOUDY    72  70  94 NE9       30.01F

$$

ANZ530>537-301500-
MARINE OBSERVATIONS

STATION/POSITION TIME  TEMP    WIND        PRES
                       AIR SEA DIR/SP/G
                 (UTC) (F)     (DEG/KT/KT) (MB)
THOMAS PT LIGHT  1400   69 68   30/  2/  3 1018.3R
BALT KEY BRIDGE  1300   71     300/  5/  5 1016.8R
COVE POINT       1300   67     350/  7/  7 1017.1R
LEWISETTA        1300   74 70   CALM  /  1 1015.9F
SOLOMONS ISLAND  1300   70 68  360/  2/  3   N/A
PINEY POINT      1300           10/  2/  2   N/A

$$





USA.gov is the U.S. government's official web portal to all federal, state and local government web resources and services.